User: anonymous   Login
Location: Unspecified
(0.0000°N, 0.0000°E)
Time: 17:48:45
(UTC+00:00)
Language:

Vela 6A - Orbit

View from above orbital plane
View from above orbital plane
View from above satellite
View from above satellite

Ground track
Ground track

The orbit data is extracted from the following two-line orbital elements,

1 04366U 70027A   14329.99821512  .00000865  00000-0  00000+0 0   237
2 04366 051.1022 244.5640 7066117 083.7353 001.7424 00.21464997 28666
Epoch (UTC): 25 November 2014 23:57:25
Eccentricity: 0.7066117
inclination: 51.1022°
perigee height: 28191 km
apogee height: 194706 km
right ascension of ascending node: 244.5640°
argument of perigee: 83.7353°
revolutions per day: 0.21464997
mean anomaly at epoch: 1.7424°
orbit number at epoch: 2866

The dashed part of the orbit path shows where the satellite is in the earth's shadow,  

DLR